Weather in Rio Cuarto

Argentina     33°07′28″S   64°21′07″W
temp.,
°C
wind,
m/s
gust,
m/s
humid.,
%
clouds,
%
prec.,
mm/h
press.,
hPa
HPBL,
m
14 may, fri
fri1400:00+10n49530 0.0 1020161
03:00+9n49570 0.0 1019136
06:00+9nnw355836 0.0 101862
09:00+11nnw224880 0.0 101944
12:00+19nne342628 0.0 1018743
15:00+22nne66225 0.0 10151323
18:00+18ne58355 0.0 1015203
21:00+12nne410515 0.0 1017187
15 may, sat
sat1500:00+10nne41159100 0.0 1018193
03:00+10n4106498 0.0 1018171
06:00+10n3566100 0.0 101790
09:00+11nnw1263100 0.0 101851
12:00+18ene2242100 0.0 1017528
15:00+21ene323486 0.0 10151143
18:00+18ene3541100 0.0 101571
21:00+13nne3652100 0.0 1018113
16 may, sun
sun1600:00+12n3659100 0.0 1018101
03:00+11n2367100 0.0 101725
06:00+10wnw2268100 0.0 101810
09:00+12sw22604 0.0 101945
12:00+20ssw343921 0.0 1019775
15:00+22s44340 0.0 10181321
18:00+18sse354616 0.0 101888
21:00+13s2261100 0.0 102116
17 may, mon
mon1700:00+11wsw2268100 0.0 102213
03:00+10wsw227413 0.0 102211
06:00+9wsw11795 0.0 102110
09:00+11ene1172100 0.0 102326
12:00+17ne345063 0.0 1022613
15:00+21ne554144 0.0 10181154
18:00+18ne4850100 0.0 1017204
21:00+13ne41075100 0.0 1019243
18 may, tue
tue1800:00+12nne512835 0.0 1019276
03:00+11nne411895 0.0 1018233
06:00+10nne4119222 0.0 1017229
09:00+12nne5128240 0.0 1017317
12:00+20nne795374 0.0 1016760
15:00+23nne774513 0.0 10121336
18:00+20nne6105496 0.0 1012468
21:00+15nne51174100 0.0 1014331